[[{"header":{"parameterUnit":"m.s-1","parameterCategory":1,"la1":30.2991,"la2":30.254,"lo1":-89.0895,"lo2":-89.0444,"dy":0.0017,"dx":0.0017,"nx":28,"ny":28,"refTime":"2024-08-18T09:00:00:Z","depth":0,"parameterNumber":2,"parameterNumberName":"U-component_of_WINDS"},"data":[0,0,0,0,0,0,0,0,0,0,0,0,0,0,0,0,0,0,0,0,0,0,0,0,0,0,0,0,0,0,0,0,0,0,0,0,0,0,0,0,0,0,0,0,0,0,0,0,0,0,0,0,0,0,0,0,0,0,4.139,4.1391,0,4.1508,4.1509,4.1511,4.1427,4.1424,4.142,4.1416,4.154,4.1547,4.1554,0,0,0,0,0,0,0,0,0,0,0,0,0,4.1097,4.1102,4.139,4.1391,4.1393,4.1508,4.1509,4.1511,4.1428,4.1423,4.1419,4.1415,4.1538,4.1546,4.1554,0,0,0,0,0,0,0,0,0,0,0,0,0,4.122,4.1104,4.139,4.1365,4.1364,4.1507,4.1509,4.1511,4.1429,4.1423,4.1418,4.1412,4.1535,4.1545,4.1555,4.173,0,0,4.1586,4.1591,0,0,0,0,0,0,0,0,4.1213,4.1231,4.1367,4.1367,4.1366,4.1447,4.1451,4.1585,4.143,4.1404,4.1416,4.141,4.1514,4.1526,4.156,4.1736,4.1741,4.1587,4.1594,4.1598,4.1601,0,0,0,0,0,0,0,4.1205,4.1226,4.1437,4.1369,4.1369,4.135,4.1361,4.1476,4.1489,4.1406,4.14,4.1415,4.1513,4.1551,4.1562,4.1743,4.1587,4.1596,4.1602,4.1606,4.2071,4.2077,0,0,0,0,0,0,4.1198,4.1219,4.1433,4.144,4.1274,4.1359,4.1372,4.1427,4.1488,4.1492,4.142,4.1411,4.1536,4.1551,4.1567,4.1777,4.1598,4.1607,4.1613,4.2065,4.2072,4.2079,0,0,0,0,0,0,4.1192,4.1218,4.1428,4.1328,4.1353,4.137,4.1433,4.1432,4.147,4.1498,4.15,4.1456,4.1532,4.1552,4.169,4.178,4.1612,4.1621,4.2057,4.2067,4.2076,4.2199,0,0,0,0,0,0,4.1184,4.1216,4.1282,4.133,4.1359,4.1549,4.1438,4.1438,4.1487,4.1477,4.1533,4.1537,4.1529,4.1676,4.1701,4.1791,4.1629,4.2049,4.2062,4.2073,4.2187,4.2211,4.2232,0,0,0,0,0,4.1174,4.1312,4.1286,4.1312,4.1441,4.1555,4.1571,4.1559,4.1495,4.1562,4.158,4.1535,4.1766,4.1691,4.1718,4.1813,4.2044,4.2058,4.2072,4.2177,4.2206,4.2231,0,0,0,0,0,0,4.1275,4.1318,4.1289,4.1447,4.1498,4.154,4.1624,4.1591,4.1662,4.1649,4.1631,4.1645,4.179,4.1815,4.173,4.1986,4.1895,4.1915,4.1965,4.1994,4.2016,4.2008,4.1638,0,0,0,0,0,4.1315,4.1403,4.1436,4.1572,4.1599,4.1608,4.1656,4.1643,4.1695,4.1716,4.1745,4.1798,4.1883,4.1939,4.2019,4.2189,4.2202,4.2268,4.2291,4.2309,4.2328,4.2422,4.2453,4.2125,4.2125,4.2125,0,0,4.14,4.1434,4.1491,4.1593,4.1631,4.1723,4.1626,4.1727,4.1796,4.1732,4.1865,4.1888,4.1946,4.2102,4.2172,4.2127,4.2421,4.2327,4.2342,4.235,4.244,4.2471,4.2498,4.2135,4.2133,4.2131,0,0,4.1602,4.1636,4.1754,4.1794,4.1852,4.1857,4.1886,4.1934,4.1947,4.2079,4.2033,4.2115,4.2261,4.2306,4.2347,4.2568,4.253,4.2594,4.2713,4.2805,4.2831,4.2854,4.2935,4.2964,4.2612,4.2612,4.2612,0,4.1701,4.1837,4.1819,4.1925,4.1972,4.1917,4.2038,4.2077,4.2159,4.2194,4.2142,4.2325,4.236,4.2527,4.2581,4.2616,4.265,4.2588,4.2828,4.2851,4.2872,4.2949,4.298,4.262,4.2619,4.2618,4.2617,0,4.1957,4.2052,4.2141,4.2221,4.2277,4.239,4.2391,4.2451,4.2433,4.2444,4.2581,4.2621,4.2709,4.2747,4.273,4.2912,4.2883,4.283,4.2738,4.2912,4.2984,4.3013,4.2631,4.2628,4.2625,4.2624,0,0,4.2227,4.2296,4.2329,4.2365,4.2425,4.25,4.261,4.2695,4.2748,4.2806,4.2901,4.3026,4.2978,4.3025,4.3013,4.3093,4.3269,4.3031,4.3032,4.3076,4.3475,4.3516,4.355,4.3243,4.3248,4.3253,4.3471,0,4.2434,4.2626,4.2614,4.2796,4.2885,4.2834,4.2931,4.2979,4.2993,4.3071,4.3086,4.3176,4.3105,4.3133,4.3211,4.3231,4.3349,4.3214,4.3332,4.3337,4.3321,4.3587,4.3631,4.3834,4.3498,4.3503,4.3507,0,4.2702,4.2769,4.296,4.3008,4.3045,4.3132,4.321,4.3285,4.334,4.3344,4.3397,4.3372,4.3486,4.339,4.3547,4.3457,4.3504,4.3521,4.3529,4.3541,4.3434,4.3609,4.3899,4.3931,4.355,4.3547,4.3544,0,4.2883,4.3021,4.3153,4.3186,4.3245,4.3308,4.3335,4.3384,4.3437,4.3505,4.3539,4.362,4.3665,4.3729,4.3727,4.3657,4.3888,4.3791,4.3897,4.3898,4.395,4.3947,4.4254,4.3977,4.3976,4.3976,4.3975,0,4.3118,4.3237,4.3236,4.3317,4.345,4.3435,4.3567,4.3588,4.3632,4.3718,4.3679,4.3761,4.3752,4.3835,4.3834,4.3967,4.3986,4.3995,4.3994,4.4,4.3999,4.4032,4.4019,4.3984,4.3982,4.398,4.3979,0,4.3343,4.3347,4.3488,4.3532,4.3546,4.3643,4.3681,4.3759,4.3769,4.3879,4.3904,4.392,4.4016,4.4019,4.413,4.4129,4.4291,4.4273,4.4273,4.427,4.4377,4.4368,4.4717,4.4764,4.4454,4.4457,4.446,0,4.3494,4.3584,4.3638,4.3692,4.3724,4.3812,4.3865,4.3854,4.3912,4.3981,4.4052,4.4144,4.4217,4.4373,4.4396,4.448,4.4465,4.4582,4.4478,4.4482,4.447,4.4466,4.4476,4.4603,4.4607,4.4609,4.4612,0,4.3761,4.3759,4.3836,4.3916,4.398,4.4042,4.4099,4.4147,4.4142,4.4209,4.4306,4.4363,4.4476,4.4569,4.4651,4.4681,4.4648,4.4644,4.4673,4.4682,4.4679,4.4685,4.4331,4.4636,4.4634,4.4632,4.4631,4.463,4.3956,4.4035,4.4085,4.4174,4.4215,4.427,4.4346,4.4365,4.4446,4.4536,4.4525,4.4634,4.4687,4.4795,4.4832,4.4918,4.4878,4.492,4.4931,4.4942,4.4955,4.4663,4.4932,4.4932,4.4931,4.493,4.493,0,4.4224,4.4254,4.4335,4.4416,4.4486,4.4446,4.4508,4.457,4.4665,4.4718,4.479,4.4903,4.4993,4.5023,4.511,4.5174,4.5161,4.5198,4.5194,4.5202,4.4984,4.4951,4.5207,4.5207,4.5207,4.5207,4.5207,4.5207,4.4371,4.4503,4.4507,4.466,4.4689,4.4794,4.4834,4.4885,4.4926,4.5054,4.5128,4.5146,4.519,4.5281,4.5362,4.5369,4.5404,4.5448,4.5449,4.5245,4.5217,4.5191,4.516,4.5455,4.5456,4.566,4.5662,4.5663]},{"header":{"parameterUnit":"m.s-1","parameterCategory":1,"la1":30.2991,"la2":30.254,"lo1":-89.0895,"lo2":-89.0444,"dy":0.0017,"dx":0.0017,"nx":28,"ny":28,"refTime":"2024-08-18T09:00:00:Z","depth":0,"parameterNumber":3,"parameterNumberName":"V-component_of_WINDS"},"data":[0,0,0,0,0,0,0,0,0,0,0,0,0,0,0,0,0,0,0,0,0,0,0,0,0,0,0,0,0,0,0,0,0,0,0,0,0,0,0,0,0,0,0,0,0,0,0,0,0,0,0,0,0,0,0,0,0,0,-2.7597,-2.7599,0,-2.7744,-2.7745,-2.7747,-2.7818,-2.7818,-2.7818,-2.7818,-2.7969,-2.7973,-2.7977,0,0,0,0,0,0,0,0,0,0,0,0,0,-2.738,-2.7383,-2.7597,-2.7599,-2.7601,-2.7743,-2.7745,-2.7747,-2.7818,-2.7818,-2.7818,-2.7818,-2.7968,-2.7973,-2.7978,0,0,0,0,0,0,0,0,0,0,0,0,0,-2.7495,-2.7385,-2.7597,-2.7653,-2.766,-2.7743,-2.7745,-2.7748,-2.7818,-2.7818,-2.7818,-2.7818,-2.7967,-2.7972,-2.7978,-2.8017,0,0,-2.7997,-2.8,0,0,0,0,0,0,0,0,-2.7488,-2.7503,-2.7643,-2.765,-2.7657,-2.7763,-2.7724,-2.7838,-2.7818,-2.7758,-2.7818,-2.7818,-2.7901,-2.7912,-2.794,-2.8024,-2.803,-2.7998,-2.8001,-2.8004,-2.8006,0,0,0,0,0,0,0,-2.748,-2.7497,-2.7655,-2.7645,-2.7654,-2.7672,-2.7688,-2.7746,-2.7828,-2.7763,-2.7769,-2.7785,-2.7905,-2.7934,-2.7944,-2.8033,-2.7997,-2.8003,-2.8007,-2.8009,-2.8156,-2.8156,0,0,0,0,0,0,-2.7463,-2.749,-2.7651,-2.766,-2.7571,-2.7676,-2.7694,-2.7729,-2.7828,-2.7842,-2.7785,-2.7788,-2.7923,-2.7937,-2.7949,-2.8001,-2.8004,-2.8009,-2.8013,-2.8156,-2.8156,-2.8156,0,0,0,0,0,0,-2.7458,-2.7477,-2.7645,-2.7576,-2.7599,-2.7679,-2.7718,-2.7732,-2.7761,-2.7844,-2.7859,-2.78,-2.7924,-2.7941,-2.8,-2.8008,-2.8012,-2.8018,-2.8155,-2.8156,-2.8156,-2.8105,0,0,0,0,0,0,-2.7452,-2.7474,-2.749,-2.7576,-2.7602,-2.7692,-2.7719,-2.7735,-2.7771,-2.7776,-2.7862,-2.7876,-2.7925,-2.799,-2.8006,-2.8016,-2.8023,-2.8155,-2.8156,-2.8156,-2.8106,-2.8104,-2.8101,0,0,0,0,0,-2.7444,-2.747,-2.749,-2.7509,-2.7623,-2.7692,-2.7707,-2.7763,-2.7772,-2.7788,-2.7841,-2.7873,-2.8004,-2.7995,-2.8014,-2.8026,-2.8155,-2.8156,-2.8156,-2.8107,-2.8104,-2.8101,0,0,0,0,0,0,-2.7382,-2.7482,-2.7506,-2.756,-2.7617,-2.7704,-2.7726,-2.7757,-2.7813,-2.7816,-2.7883,-2.7902,-2.7954,-2.7996,-2.7985,-2.8069,-2.8083,-2.8087,-2.8039,-2.8037,-2.8034,-2.8023,-2.8028,0,0,0,0,0,-2.7375,-2.7422,-2.7507,-2.7547,-2.7574,-2.7645,-2.7677,-2.7715,-2.7777,-2.7801,-2.7859,-2.7918,-2.7972,-2.8007,-2.8062,-2.8112,-2.8132,-2.813,-2.8127,-2.8125,-2.8128,-2.8158,-2.8158,-2.8158,-2.8158,-2.8158,0,0,-2.7361,-2.7421,-2.7447,-2.7536,-2.7585,-2.7633,-2.7665,-2.7714,-2.775,-2.7809,-2.7868,-2.7912,-2.7982,-2.8037,-2.8064,-2.8074,-2.8132,-2.8126,-2.8123,-2.8128,-2.8159,-2.8159,-2.8159,-2.8159,-2.8159,-2.8159,0,0,-2.736,-2.741,-2.7449,-2.7496,-2.7569,-2.7616,-2.7625,-2.7707,-2.7739,-2.7799,-2.7844,-2.7888,-2.798,-2.8029,-2.8065,-2.8082,-2.8114,-2.8098,-2.8085,-2.8114,-2.8114,-2.8114,-2.812,-2.8122,-2.81,-2.81,-2.81,0,-2.7333,-2.7407,-2.7465,-2.7512,-2.755,-2.7604,-2.7645,-2.7688,-2.7775,-2.78,-2.7809,-2.7927,-2.7978,-2.8045,-2.8049,-2.8077,-2.809,-2.8089,-2.8109,-2.811,-2.8111,-2.8118,-2.812,-2.8098,-2.8098,-2.8098,-2.8099,0,-2.737,-2.7421,-2.7444,-2.7526,-2.7566,-2.7609,-2.7675,-2.7709,-2.7743,-2.7789,-2.785,-2.7913,-2.7981,-2.8,-2.8034,-2.8072,-2.8076,-2.8096,-2.8111,-2.8108,-2.8115,-2.8118,-2.8095,-2.8095,-2.8096,-2.8097,0,0,-2.7335,-2.7449,-2.7456,-2.7494,-2.7578,-2.7618,-2.7664,-2.7731,-2.7759,-2.7817,-2.7857,-2.7934,-2.7953,-2.7995,-2.8035,-2.806,-2.807,-2.8078,-2.808,-2.8074,-2.8116,-2.8101,-2.8103,-2.8091,-2.8092,-2.8093,-2.8111,0,-2.7346,-2.743,-2.7484,-2.7547,-2.7594,-2.7646,-2.7686,-2.7742,-2.7786,-2.7834,-2.7883,-2.7936,-2.7957,-2.7982,-2.801,-2.8063,-2.8079,-2.8062,-2.813,-2.8132,-2.8111,-2.8107,-2.8091,-2.8105,-2.8114,-2.8114,-2.8115,0,-2.737,-2.7426,-2.7493,-2.7572,-2.7594,-2.7629,-2.7694,-2.7738,-2.7803,-2.7834,-2.788,-2.792,-2.7971,-2.7982,-2.8054,-2.8041,-2.8072,-2.8102,-2.8104,-2.8113,-2.8123,-2.8116,-2.8111,-2.8113,-2.812,-2.812,-2.8119,0,-2.7338,-2.743,-2.7483,-2.7514,-2.7607,-2.763,-2.767,-2.7735,-2.7771,-2.7829,-2.7853,-2.7916,-2.795,-2.7998,-2.8055,-2.8057,-2.8121,-2.8136,-2.8148,-2.8147,-2.816,-2.8158,-2.8159,-2.8178,-2.8178,-2.8178,-2.8178,0,-2.7345,-2.7384,-2.747,-2.7502,-2.7547,-2.7609,-2.7652,-2.7697,-2.7754,-2.7796,-2.7845,-2.7884,-2.7956,-2.8004,-2.8049,-2.8101,-2.8117,-2.8143,-2.8154,-2.8139,-2.8136,-2.8161,-2.8161,-2.8179,-2.8179,-2.8179,-2.8178,0,-2.7317,-2.7376,-2.7436,-2.7519,-2.7541,-2.7571,-2.7643,-2.7676,-2.7722,-2.7775,-2.7791,-2.7864,-2.7923,-2.7984,-2.8064,-2.8094,-2.8145,-2.8161,-2.8123,-2.813,-2.8138,-2.8137,-2.8156,-2.8162,-2.8176,-2.8176,-2.8176,0,-2.7318,-2.7349,-2.7435,-2.7466,-2.7505,-2.7555,-2.7593,-2.7654,-2.7691,-2.7768,-2.7792,-2.7854,-2.7907,-2.7999,-2.806,-2.8121,-2.8139,-2.8141,-2.8149,-2.8132,-2.814,-2.8137,-2.8141,-2.8139,-2.8138,-2.8138,-2.8138,0,-2.7312,-2.734,-2.7392,-2.7454,-2.7497,-2.7549,-2.7603,-2.7626,-2.7698,-2.7737,-2.7798,-2.7839,-2.792,-2.7981,-2.805,-2.8092,-2.8127,-2.8135,-2.8141,-2.8126,-2.8103,-2.8116,-2.8117,-2.8134,-2.8135,-2.8135,-2.8135,-2.8135,-2.73,-2.733,-2.7395,-2.7451,-2.7498,-2.7547,-2.7583,-2.7633,-2.7684,-2.7755,-2.7788,-2.7849,-2.7914,-2.8009,-2.805,-2.8099,-2.8109,-2.8118,-2.812,-2.8122,-2.8118,-2.8094,-2.8112,-2.8112,-2.8112,-2.8112,-2.8113,0,-2.7297,-2.7342,-2.7393,-2.7466,-2.751,-2.7539,-2.76,-2.7635,-2.7687,-2.7744,-2.7795,-2.7865,-2.7925,-2.799,-2.8054,-2.8081,-2.8098,-2.8095,-2.8094,-2.8104,-2.8105,-2.8094,-2.808,-2.808,-2.808,-2.808,-2.808,-2.808,-2.7301,-2.7354,-2.7389,-2.7466,-2.7511,-2.757,-2.7602,-2.7648,-2.7694,-2.7769,-2.7819,-2.786,-2.7921,-2.799,-2.8046,-2.8064,-2.8086,-2.8078,-2.8101,-2.8101,-2.8103,-2.8106,-2.8095,-2.8082,-2.8082,-2.8095,-2.8095,-2.8095]}]]